Wetterdaten Sommer 2001

Datum T max T min Regen
01.06.2001 20.5 °C 10.2 °C 0 mm
02.06.2001 14.7 °C 11.5 °C 7.6 mm
03.06.2001 15 °C 7.4 °C 4.7 mm
04.06.2001 17.3 °C 7.8 °C 0 mm
05.06.2001 22.6 °C 7.2 °C 0 mm
06.06.2001 22.6 °C 12.5 °C 0.7 mm
07.06.2001 24.3 °C 13.8 °C 0.4 mm
08.06.2001 16.7 °C 11.1 °C 10.1 mm
09.06.2001 14.1 °C 10.6 °C 1.4 mm
10.06.2001 11.9 °C 11.9 °C 0 mm
11.06.2001 15.2 °C 9.6 °C 5.8 mm
12.06.2001 24.2 °C 8.3 °C 0 mm
13.06.2001 24.3 °C 10.6 °C 0.4 mm
14.06.2001 23.8 °C 13.5 °C 1.1 mm
15.06.2001 28.5 °C 12.5 °C 13.7 mm
16.06.2001 21.7 °C 14.7 °C 1.4 mm
21.06.2001 26.5 °C 11.6 °C 0 mm
22.06.2001 23.7 °C 13.5 °C 0 mm
23.06.2001 23.5 °C 12.7 °C 0 mm
24.06.2001 26.6 °C 11.5 °C 0 mm
25.06.2001 28.6 °C 13.9 °C 0 mm
26.06.2001 31.6 °C 14.3 °C 0 mm
27.06.2001 31.3 °C 15.1 °C 26.3 mm
28.06.2001 25.1 °C 17 °C 6.1 mm
29.06.2001 30.7 °C 13.4 °C 0 mm
30.06.2001 30.1 °C 15 °C 4 mm
01.07.2001 26.3 °C 15 °C 0.4 mm
02.07.2001 29.6 °C 14.5 °C 0 mm
03.07.2001 31.5 °C 13.5 °C 0 mm
04.07.2001 32.1 °C 12.3 °C 0 mm
05.07.2001 34 °C 14.6 °C 0 mm
06.07.2001 31.7 °C 16.3 °C 1.1 mm
07.07.2001 31.7 °C 17.7 °C 13 mm
10.07.2001 30.7 °C 12.8 °C 0 mm
11.07.2001 23.7 °C 16.9 °C 0 mm
12.07.2001 27 °C 13.4 °C 5.4 mm
13.07.2001 22.4 °C 13.7 °C 6.1 mm
14.07.2001 24.7 °C 17.1 °C 11.2 mm
15.07.2001 17.6 °C 13.7 °C 27.4 mm
16.07.2001 19.7 °C 12.5 °C 0 mm
17.07.2001 21.2 °C 11.6 °C 0 mm
18.07.2001 22.4 °C 15.7 °C 1.8 mm
19.07.2001 24.5 °C 14.8 °C 0 mm
20.07.2001 21.1 °C 14.8 °C 0 mm
21.07.2001 23.9 °C 13.9 °C 0 mm
22.07.2001 27.8 °C 12.9 °C 0 mm
23.07.2001 29.6 °C 15.6 °C 0 mm
24.07.2001 30.3 °C 17.5 °C 0 mm
25.07.2001 30.5 °C 17 °C 0 mm
26.07.2001 30.8 °C 16.6 °C 0 mm
27.07.2001 31.5 °C 16.1 °C 0 mm
28.07.2001 32.2 °C 17.6 °C 0 mm
29.07.2001 30.2 °C 19.8 °C 0 mm
30.07.2001 29.8 °C 16.9 °C 0 mm
31.07.2001 32.4 °C 16 °C 0 mm
01.08.2001 28.9 °C 19.8 °C 0 mm
02.08.2001 33.1 °C 17.5 °C 0.4 mm
04.08.2001 27.2 °C 17.6 °C 4 mm
05.08.2001 25.2 °C 15.1 °C 0 mm
06.08.2001 26.8 °C 14.3 °C 1.8 mm
07.08.2001 24.1 °C 16.3 °C 8.3 mm
08.08.2001 24.6 °C 15.7 °C 2.5 mm
09.08.2001 24.9 °C 15.4 °C 0 mm
10.08.2001 21.1 °C 16 °C 0 mm
12.08.2001 25.1 °C 16.8 °C 0 mm
13.08.2001 28.1 °C 12.6 °C 0 mm
14.08.2001 32.5 °C 15 °C 0 mm
15.08.2001 34.6 °C 18.1 °C 0 mm
16.08.2001 31 °C 18.8 °C 0.4 mm
17.08.2001 28.9 °C 18.1 °C 0.4 mm
20.08.2001 23.5 °C 18.2 °C 14.4 mm
21.08.2001 27.2 °C 15.7 °C 0 mm
22.08.2001 27.5 °C 15.5 °C 0 mm
23.08.2001 29.3 °C 16.4 °C 0 mm
24.08.2001 29.8 °C 17.3 °C 0 mm
25.08.2001 31.4 °C 17.5 °C 0 mm
26.08.2001 33 °C 17.5 °C 0 mm
27.08.2001 32.5 °C 17.6 °C 0 mm
28.08.2001 23.5 °C 13.5 °C 0 mm
29.08.2001 24.8 °C 10.6 °C 0 mm
30.08.2001 20.2 °C 11.4 °C 10.8 mm
31.08.2001 20.7 °C 12 °C 4.7 mm
*) Messwert für diesen Zeitpunkt noch nicht verfügbar
 Hinweis zur Datenqualität
∅ Temperatur

20.3 °C

Abweichung vom Mittel

+1.6 °C

Niederschlag

197.5 mm

Abweichung vom Mittel

89 %

34.6 °C

Lufttemperatur
15.08.2001

1022 hPa

Luftdruck
01.07.2001

43.3 km/h

Windböen
06.07.2001

197.48003 mm

Niederschlag
 

7.2 °C

Lufttemperatur
05.06.2001

*) °C

Bodentemperatur 5cm
01.01.1970

998 hPa

Luftdruck
06.07.2001
*) Messwert für diesen Zeitpunkt noch nicht verfügbar
 Hinweis zur Datenqualität